Location: ?�kov
(49.4404°N, 15.1201°E)
Time: 16:37:05
(UTC+00:00)

STARLINK-1364 - Pass Details

Date: 07 June 2020
Orbit: 379 x 381 km, 53.0° (Epoch: 13 July)

Event Time Altitude Azimuth Distance (km) Brightness Sun altitude
Rises 23:54:09 0° 283° (WNW) 2,260 6.8 -16.7°
Reaches altitude 10° 23:56:17 10° 290° (WNW) 1,406 5.8 -16.6°
Maximum altitude 23:59:17 41° 3° (N) 570 4.2 -16.5°
Drops below altitude 10° 00:02:17 10° 76° (ENE) 1,405 6.1 -16.4°
Sets 00:04:21 0° 84° (E) 2,234 7.0 -16.3°
